{"data":{"norad_id":38833,"epoch":"2026-09-19T13:07:59.993760Z","epoch_age_seconds":96661,"freshness":"FRESH","line1":"1 38833U 12053A   26262.54722215 -.00000015  00000+0  00000+0 0  9997","line2":"2 38833  53.5975 139.7304 0185891  67.4936 294.5409  2.00557208101335","mean_motion":2.00557208,"eccentricity":0.0185891,"inclination_deg":53.5975,"raan_deg":139.7304,"arg_perigee_deg":67.4936,"mean_anomaly_deg":294.5409,"bstar":0,"rev_number":10133,"period_min":717.99962432664,"perigee_km":19689.032049202,"apogee_km":20676.518966603,"semimajor_km":26560.912507903,"source":"CELESTRAK","updated_at":"2026-09-20T09:00:46.087469Z"}}